Regional Weather Roundup
Issued by NWS

Home | Current Version | Previous Version | Graphics & Text | Print | Product List | Glossary On
Versions: 1 2 3 4 5 6 7 8 9 10 11 12 13 14 15 16 17 18 19 20 21 22 23 24 25 26 27 28 29 30 31 32 33 34 35 36 37 38 39 40 41 42 43 44 45 46 47 48 49 50
765
ASUS43 KBIS 111531
RWRND
NORTH DAKOTA REGIONAL WEATHER ROUNDUP
NATIONAL WEATHER SERVICE EASTERN NORTH DAKOTA/GRAND FORKS ND
900 AM CST THU FEB 11 2016

  NOTE: "FAIR" INDICATES FEW OR NO CLOUDS BELOW 12,000 FEET WITH NO
  SIGNIFICANT WEATHER AND/OR OBSTRUCTIONS TO VISIBILITY.

NDZ001>003-009>011-017-111600-
...NORTHWEST NORTH DAKOTA...

CITY           SKY/WX    TMP DP  RH WIND       PRES   REMARKS
WILLISTON      LGT SNOW  22  18  85 NE6       30.09R FOG     WCI  14
MINOT          CLOUDY    15   7  70 NE5       30.14R WCI   8
MINOT AFB      CLOUDY    12   9  85 E2        30.14R
$$

NDZ018>021-031>035-040>046-111600-
...SOUTHWEST NORTH DAKOTA...

CITY           SKY/WX    TMP DP  RH WIND       PRES   REMARKS
BISMARCK       LGT SNOW  20  15  81 E6        30.12S VSB 1   WCI  12
DICKINSON      LGT SNOW  22  19  89 E8        29.99S VSB 3/4 WCI  12
GARRISON         N/A     16  12  84 E7        30.10S WCI   6
HETTINGER      CLOUDY    30  28  92 VRB3      30.01R FOG
$$

NDZ004>008-012>016-024-026-027-054-111600-
...NORTHEAST NORTH DAKOTA...

CITY           SKY/WX    TMP DP  RH WIND       PRES   REMARKS
GRAND FORKS    CLOUDY     7   0  73 S6        30.26S WCI  -3
GRAND FORKS AF CLOUDY     9   1  72 S6        30.25R WCI  -1
DEVILS LAKE    FLURRIES   8   4  83 S3        30.18S
$$

NDZ022-023-025-028>030-036>039-047>053-111600-
...SOUTHEAST NORTH DAKOTA...

CITY           SKY/WX    TMP DP  RH WIND       PRES   REMARKS
JAMESTOWN      CLOUDY     8   5  87 S7        30.16F FOG     WCI  -3
FARGO          CLOUDY     8  -1  66 SE3       30.26F
WAHPETON       CLOUDY     9   1  72 SE3       30.27S
$$




USA.gov is the U.S. government's official web portal to all federal, state and local government web resources and services.